Location: Newark
(50.0306°N, 2.3272°E)
Time: 21:04:22
(UTC+00:00)

A-11 Canister half - Pass Details

Date: 16 December 2019
Orbit: 1525 x 1684 km, 47.3° (Epoch: 21 January)

Event Time Altitude Azimuth Distance (km) Brightness Sun altitude
Rises 11:08:02 0° 289° (WNW) 4,940 11.4 16.2°
Reaches altitude 10° 11:11:43 10° 280° (W) 3,941 11.0 16.3°
Maximum altitude 11:19:56 30° 225° (SW) 2,662 11.0 16.4°
Drops below altitude 10° 11:27:59 10° 169° (S) 3,848 13.6 16.5°
Sets 11:31:34 0° 159° (SSE) 4,807 13.1 16.6°
